Location: Curcuris
(39.7472°N, 8.8311°E)
Time: 01:24:04
(UTC+00:00)

Daily predictions for brighter satellites

Satellite Brightness Start Highest point End
(mag) Time Altitude Azimuth Time Altitude Azimuth Time Altitude Azimuth
Cosmos 2344 4.4 02:53:31 42° NE 02:53:31 42° NE 02:58:16 10° NE
USA 238 DEB 4.3 03:12:40 48° ENE 03:12:40 48° ENE 03:17:55 10° NE
USA 238 4.3 03:12:43 48° E 03:12:43 48° E 03:18:01 10° NE
Cosmos 2369 Rocket 3.8 03:30:57 10° SSE 03:35:48 31° ESE 03:40:40 10° NE
Cosmos 1867 3.9 03:50:15 60° NE 03:50:22 60° NE 03:55:44 10° SE
Tsikada Rocket 4.2 03:44:16 10° S 03:50:23 70° E 03:56:37 10° NNE
Cosmos 1943 Rocket 2.7 04:06:38 43° N 04:06:38 43° N 04:10:36 10° NNE
CZ-2C R/B 3.8 04:01:47 10° SE 04:06:56 42° ENE 04:11:59 10° N
Cosmos 2082 Rocket 3.9 04:15:38 18° SSW 04:15:38 18° SSW 04:17:11 10° SSW
Cosmos 1241 Rocket 4.5 04:10:32 40° NNW 04:12:54 76° ENE 04:19:06 10° SE
CENTAUR R/B 2.8 04:16:08 46° NW 04:16:08 46° NW 04:22:25 10° NNE
Cosmos 2297 4.2 04:21:06 42° NNW 04:21:06 42° NNW 04:25:29 10° NNE
Iridium 2 4.4 04:21:15 10° SSE 04:24:55 54° E 04:28:38 10° NNE
NOSS 3-2 (A) 4.3 04:27:49 30° NNW 04:27:49 30° NNW 04:32:38 10° NNE
SKYMED 2 3.8 04:29:27 10° SSE 04:33:44 69° ENE 04:37:12 16° N
NOSS 3-2 (C) 3.5 04:33:35 43° WNW 04:34:17 45° NW 04:40:21 10° NNE
DELTA 2 R/B (1) 3.9 04:33:01 30° SW 04:35:39 59° SSE 04:41:06 10° E
Envisat 2.9 04:32:24 10° NNE 04:37:31 84° WNW 04:42:35 10° SSW
Cosmos 2098 Rocket 2.8 04:36:14 10° S 04:39:50 84° E 04:44:26 10° N
Meteor 2-3 Rocket 3.9 04:35:05 10° SSW 04:40:27 45° WNW 04:45:55 10° N
Landsat 5 4.0 04:38:54 10° SSE 04:43:22 67° ENE 04:47:50 10° N
Cosmos 968 Rocket 3.7 04:42:39 36° WSW 04:43:59 44° WNW 04:48:55 10° N
Meteor 2-13 Rocket 4.3 04:38:44 10° SSW 04:44:48 66° W 04:50:52 10° N
BREEZE-M DEB (TANK) 4.3 04:31:15 22° WNW 04:44:51 83° SW 04:50:23 10° SE
CZ-4B R/B 4.0 04:45:31 10° N 04:49:58 75° WNW 04:54:26 10° SSW
Genesis I 3.2 04:49:24 42° NW 04:50:41 72° WSW 04:54:41 10° SSE
Okean 3 Rocket 3.7 04:46:56 10° S 04:51:26 82° E 04:56:00 10° N
Cosmos 921 Rocket 2.9 04:50:36 25° NNW 04:53:06 70° WSW 04:57:32 10° S
ATLAS 5 CENTAUR R/B 4.0 04:50:35 10° SSE 04:53:27 21° ESE 04:56:29 10° ENE
H-2A R/B 4.2 04:50:44 10° ESE 04:54:12 25° ENE 04:57:45 10° NNE
Cosmos 1812 2.6 04:56:57 20° NNW 04:59:27 63° W 05:03:13 10° S
CBERS 1 LM4 rocket 4.4 04:55:52 10° N 05:00:40 61° WNW 05:05:37 10° SSW
ADEOS 3.6 04:55:48 10° NNE 05:01:03 81° ESE 05:06:17 10° SSW
Cosmos 1354 Rocket 4.2 04:56:20 10° S 05:01:34 74° ESE 05:06:51 10° NNE
Gbstr 26 Del rocket 3.8 05:01:04 27° WSW 05:01:57 30° SW 05:05:44 10° SSE
USA 238 DEB 4.3 05:00:10 24° WNW 05:02:38 31° NW 05:08:39 10° NNE
USA 238 4.3 05:00:14 24° W 05:02:45 32° NW 05:08:46 10° NNE
Cosmos 1766 Rocket 3.5 05:00:23 10° SSW 05:04:40 61° W 05:08:58 10° N
Cosmos 2263 4.2 05:00:06 10° SW 05:05:43 63° WNW 05:11:26 10° NNE
Cosmos 2344 4.5 05:03:34 21° WNW 05:06:05 25° NNW 05:12:26 10° NNE
Cosmos 2142 Rocket 4.5 05:00:01 10° N 05:06:21 77° W 05:12:43 10° S
Cosmos 1151 Rocket 3.0 05:02:00 10° NNW 05:06:21 63° W 05:10:40 10° S
USA 215 3.3 05:00:48 10° SE 05:07:19 77° NE 05:13:04 14° NW
CZ-2C R/B 3.5 05:04:11 10° NNE 05:09:02 63° E 05:14:05 10° S
Meteor PRIRODA 3.8 05:10:39 10° NNE 05:14:16 72° ESE 05:17:52 10° S
IRAS Rocket 4.4 05:09:57 10° SSE 05:15:27 76° ENE 05:20:57 10° NNW
Meteor 1-31 Rocket 3.3 05:12:12 10° N 05:15:46 35° WNW 05:19:21 10° SW
Cosmos 1782 4.0 05:15:55 22° W 05:16:01 22° W 05:19:04 10° SW
Cosmos 2279 Rocket 3.9 05:10:57 10° NNW 05:17:05 66° W 05:23:11 10° S
BREEZE-M DEB (TANK) 3.7 05:01:18 10° SW 05:17:12 87° NNW 05:21:08 10° NE
Cosmos 1328 Rocket 3.5 05:14:40 10° NNW 05:19:02 66° W 05:23:19 10° S
Cosmos 2369 Rocket 2.7 05:14:38 10° SW 05:19:42 35° WNW 05:24:49 10° N
Cosmos 1862 3.7 05:17:21 10° SSW 05:21:01 37° WNW 05:24:43 10° N
COSMO-SKYMED 1 3.3 05:17:57 10° SSW 05:21:52 33° W 05:25:48 10° NNW
Nadezhda 4 Rocket 4.1 05:17:46 10° S 05:23:54 79° E 05:30:08 10° N
SMAP 4.2 05:20:16 10° NNE 05:24:47 48° E 05:29:15 10° S
H-2A R/B 4.1 05:26:33 10° NNW 05:29:02 17° WNW 05:31:31 10° WSW
H-2A R/B 4.1 05:31:42 10° NE 05:36:01 30° E 05:40:21 10° SSE
Meteor 2-15 Rocket 4.5 05:30:44 10° N 05:36:50 89° E 05:42:54 10° S
CZ-4B R/B 3.2 05:34:55 10° SE 05:37:55 32° ENE 05:40:55 10° N
CZ-4B R/B 2.5 05:35:04 10° N 05:38:36 59° WNW 05:42:08 10° SSW
Cosmos 1408 Rocket 3.6 05:35:51 10° SSW 05:40:04 54° W 05:44:17 10° N
CZ-4C R/B 3.9 05:40:19 10° SSW 05:42:57 24° W 05:45:35 10° NW
DMSP B5D2-2 4.1 05:37:59 10° S 05:43:09 65° WSW 05:48:20 10° NNW
Cosmos 1656 Rocket 4.3 05:38:43 10° WSW 05:43:26 30° WNW 05:48:12 10° N
Cosmos 1503 Rocket 4.5 05:38:45 10° SW 05:43:39 39° WNW 05:48:37 10° N
Cosmos 783 Rocket 4.5 05:40:09 10° NNW 05:45:22 84° WSW 05:50:34 10° SSE
CZ-2C R/B 3.7 05:42:53 10° SSW 05:47:18 25° W 05:51:42 10° NW
Cosmos 1743 Rocket 3.6 05:42:58 10° S 05:47:22 89° W 05:51:46 10° N
USA 32 4.5 05:43:37 10° N 05:48:51 69° E 05:54:03 10° SSE
EP 2 4.5 05:46:30 10° SW 05:49:42 75° WNW 05:52:41 10° NNE
FAST Rocket 3.8 05:47:11 10° SSW 05:49:50 72° W 05:52:35 10° N
Cosmos 1943 Rocket 4.0 05:49:07 10° NW 05:49:54 10° NW 05:50:39 10° NW
AQUARIUS 4.3 05:48:17 10° NNE 05:52:48 83° ESE 05:57:17 10° S
Cosmos 1777 Rocket 4.0 05:50:06 10° SSW 05:55:16 67° WNW 06:00:30 10° NNE
PSLV R/B 4.3 05:54:00 10° NNE 05:57:56 69° ESE 06:01:56 10° S
Cosmos 1515 Rocket 3.9 05:55:09 10° NNW 05:59:17 43° W 06:03:23 10° SSW
SL-8 R/B 3.9 05:54:49 10° NW 05:59:36 67° NNE 06:04:21 10° ESE
Cosmos 1602 3.9 05:56:03 10° S 05:59:51 78° E 06:03:39 10° N
CORIOLIS 4.3 05:56:43 10° NNE 06:02:12 90° W 06:07:38 10° SSW
Meteor 1-27 Rocket 3.8 05:56:54 10° NNW 06:02:29 64° W 06:08:09 10° S
